User: anonymous   Login
Location: Caltech
(34.1382°N, 118.1253°W)
Time: 01:54:26
(UTC-08:00)
Language:

Uribyol 2 - Orbit

View from above orbital plane
View from above orbital plane
View from above satellite
View from above satellite

Ground track
Ground track

The orbit data is extracted from the following two-line orbital elements,

1 22828U 93061F   16342.44896750  .00000021  00000-0  25316-4 0  9994
2 22828  98.7697 298.9427 0010679 127.2337 232.9821 14.30616830178521
Epoch (UTC): 07 December 2016 10:46:30
Eccentricity: 0.0010679
inclination: 98.7697°
perigee height: 782 km
apogee height: 797 km
right ascension of ascending node: 298.9427°
argument of perigee: 127.2337°
revolutions per day: 14.30616830
mean anomaly at epoch: 232.9821°
orbit number at epoch: 17852

The dashed part of the orbit path shows where the satellite is in the earth's shadow,  

DLR